N1SC KLIT-KMEM

Flight info

Callsign N1SC
Flight time 0h 58m
Altitude 7000
Route LIT V124 HILLE
Aircraft BE24/L-VGD/C

Departure

Time 2026-05-08 01:15
Airport Bill & Hillary Clinton National Airport/Adams Field (KLIT)

Arrival

Time 2026-05-08 02:13
Airport Memphis International Airport (KMEM)
Time Latitude Longitude Altitude Speed Heading
2026-05-08 01:04 34.73510 -92.24004 262 ft 0 kts 275°
2026-05-08 01:11 34.73515 -92.24003 262 ft 4 kts 78°
2026-05-08 01:11 34.73517 -92.23997 262 ft 0 kts 75°
2026-05-08 01:11 34.73517 -92.23994 262 ft 2 kts 64°
2026-05-08 01:11 34.73568 -92.23966 262 ft 15 kts 11°
2026-05-08 01:12 34.73702 -92.23953 262 ft 23 kts 359°
2026-05-08 01:12 34.73870 -92.23947 262 ft 24 kts
2026-05-08 01:12 34.73953 -92.23931 262 ft 0 kts 41°
2026-05-08 01:13 34.73954 -92.23930 262 ft 1 kts 43°
2026-05-08 01:13 34.73967 -92.23908 262 ft 5 kts 70°
2026-05-08 01:13 34.73973 -92.23867 262 ft 0 kts 85°
2026-05-08 01:13 34.73953 -92.23819 262 ft 15 kts 153°
2026-05-08 01:14 34.73749 -92.23819 260 ft 53 kts 181°
2026-05-08 01:14 34.73258 -92.23828 301 ft 79 kts 180°
2026-05-08 01:14 34.72720 -92.23837 498 ft 71 kts 177°
2026-05-08 01:14 34.72232 -92.23779 694 ft 71 kts 172°
2026-05-08 01:15 34.71753 -92.23723 936 ft 71 kts 173°
2026-05-08 01:15 34.71249 -92.23722 1159 ft 71 kts 178°
2026-05-08 01:15 34.70763 -92.23726 1403 ft 71 kts 178°
2026-05-08 01:15 34.70266 -92.23740 1616 ft 73 kts 180°
2026-05-08 01:16 34.69765 -92.23771 1844 ft 73 kts 178°
2026-05-08 01:16 34.69258 -92.23749 2047 ft 73 kts 178°
2026-05-08 01:16 34.68748 -92.23758 2247 ft 74 kts 178°
2026-05-08 01:16 34.68292 -92.23508 2379 ft 82 kts 119°
2026-05-08 01:17 34.68337 -92.22856 2593 ft 82 kts 57°
2026-05-08 01:17 34.68823 -92.22533 2780 ft 85 kts 356°
2026-05-08 01:17 34.69397 -92.22641 2961 ft 85 kts 10°
2026-05-08 01:17 34.69925 -92.22381 3206 ft 79 kts 25°
2026-05-08 01:18 34.70388 -92.22057 3418 ft 76 kts 28°
2026-05-08 01:18 34.70834 -92.21722 3593 ft 76 kts 28°
2026-05-08 01:18 34.71306 -92.21363 3752 ft 83 kts 28°
2026-05-08 01:18 34.71806 -92.20980 3939 ft 89 kts 29°
2026-05-08 01:19 34.72354 -92.20553 4162 ft 97 kts 29°
2026-05-08 01:19 34.72930 -92.20098 4432 ft 100 kts 29°
2026-05-08 01:19 34.73500 -92.19637 4725 ft 102 kts 29°
2026-05-08 01:19 34.74147 -92.19308 4981 ft 103 kts
2026-05-08 01:20 34.74874 -92.19130 5191 ft 109 kts
2026-05-08 01:20 34.75622 -92.18959 5395 ft 112 kts
2026-05-08 01:20 34.76394 -92.18785 5580 ft 113 kts
2026-05-08 01:20 34.77168 -92.18606 5728 ft 113 kts
2026-05-08 01:21 34.77898 -92.18207 5871 ft 119 kts 28°
2026-05-08 01:21 34.78546 -92.17574 6015 ft 120 kts 33°
2026-05-08 01:21 34.79186 -92.16919 6152 ft 120 kts 32°
2026-05-08 01:21 34.79834 -92.16282 6282 ft 119 kts 30°
2026-05-08 01:22 34.80486 -92.15666 6409 ft 119 kts 29°
2026-05-08 01:22 34.81061 -92.14935 6512 ft 125 kts 54°
2026-05-08 01:22 34.81375 -92.13936 6642 ft 127 kts 64°
2026-05-08 01:22 34.81662 -92.12910 6755 ft 129 kts 64°
2026-05-08 01:23 34.81952 -92.11876 6878 ft 129 kts 64°
2026-05-08 01:23 34.82241 -92.10850 6973 ft 130 kts 63°
2026-05-08 01:23 34.82541 -92.09795 7020 ft 136 kts 63°
2026-05-08 01:23 34.82860 -92.08684 7026 ft 142 kts 64°
2026-05-08 01:24 34.83189 -92.07531 7023 ft 145 kts 64°
2026-05-08 01:24 34.83522 -92.06360 7025 ft 148 kts 64°
2026-05-08 01:24 34.83860 -92.05172 7024 ft 149 kts 64°
2026-05-08 01:24 34.84200 -92.03976 7026 ft 150 kts 64°
2026-05-08 01:25 34.84542 -92.02774 7028 ft 150 kts 64°
2026-05-08 01:25 34.84885 -92.01571 7032 ft 151 kts 64°
2026-05-08 01:25 34.85229 -92.00360 7031 ft 151 kts 64°
2026-05-08 01:25 34.85573 -91.99155 7031 ft 151 kts 64°
2026-05-08 01:26 34.85917 -91.97945 7030 ft 151 kts 64°
2026-05-08 01:26 34.86262 -91.96734 7029 ft 151 kts 65°
2026-05-08 01:26 34.86607 -91.95523 7029 ft 151 kts 64°
2026-05-08 01:26 34.86952 -91.94312 7029 ft 151 kts 64°
2026-05-08 01:27 34.87295 -91.93102 7033 ft 151 kts 64°
2026-05-08 01:27 34.87636 -91.91906 7034 ft 151 kts 64°
2026-05-08 01:27 34.87980 -91.90693 7037 ft 151 kts 65°
2026-05-08 01:27 34.88326 -91.89478 7037 ft 151 kts 65°
2026-05-08 01:28 34.88667 -91.88274 7037 ft 150 kts 65°
2026-05-08 01:28 34.89008 -91.87076 7040 ft 150 kts 65°
2026-05-08 01:28 34.89347 -91.85879 7040 ft 150 kts 65°
2026-05-08 01:28 34.89688 -91.84678 7040 ft 149 kts 65°
2026-05-08 01:29 34.90028 -91.83479 7048 ft 150 kts 65°
2026-05-08 01:29 34.90365 -91.82292 7062 ft 150 kts 65°
2026-05-08 01:29 34.90706 -91.81089 7070 ft 150 kts 65°
2026-05-08 01:29 34.91047 -91.79884 7069 ft 150 kts 65°
2026-05-08 01:30 34.91387 -91.78681 7064 ft 150 kts 65°
2026-05-08 01:30 34.91727 -91.77479 7064 ft 150 kts 65°
2026-05-08 01:30 34.92067 -91.76278 7062 ft 150 kts 65°
2026-05-08 01:30 34.92407 -91.75075 7060 ft 150 kts 65°
2026-05-08 01:31 34.92742 -91.73889 7055 ft 150 kts 65°
2026-05-08 01:31 34.93082 -91.72686 7053 ft 150 kts 65°
2026-05-08 01:31 34.93420 -91.71490 7051 ft 149 kts 65°
2026-05-08 01:31 34.93758 -91.70292 7050 ft 149 kts 65°
2026-05-08 01:32 34.94096 -91.69094 7044 ft 149 kts 65°
2026-05-08 01:32 34.94433 -91.67897 7051 ft 149 kts 65°
2026-05-08 01:32 34.94770 -91.66698 7051 ft 149 kts 65°
2026-05-08 01:32 34.95103 -91.65498 7048 ft 149 kts 65°
2026-05-08 01:33 34.95434 -91.64311 7051 ft 147 kts 65°
2026-05-08 01:33 34.95759 -91.63142 7050 ft 145 kts 65°
2026-05-08 01:33 34.96085 -91.61973 7047 ft 146 kts 65°
2026-05-08 01:33 34.96416 -91.60797 7047 ft 147 kts 65°
2026-05-08 01:34 34.96748 -91.59614 7045 ft 148 kts 65°
2026-05-08 01:34 34.97078 -91.58440 7044 ft 148 kts 65°
2026-05-08 01:34 34.97412 -91.57248 7043 ft 149 kts 65°
2026-05-08 01:34 34.97748 -91.56052 7045 ft 149 kts 65°
2026-05-08 01:35 34.98082 -91.54861 7041 ft 149 kts 65°
2026-05-08 01:35 34.98416 -91.53667 7046 ft 148 kts 66°
2026-05-08 01:35 34.98749 -91.52479 7057 ft 148 kts 66°
2026-05-08 01:35 34.99081 -91.51290 7058 ft 148 kts 66°
2026-05-08 01:36 34.99416 -91.50097 7060 ft 148 kts 66°
2026-05-08 01:36 34.99749 -91.48909 7061 ft 148 kts 66°
2026-05-08 01:36 35.00082 -91.47719 7060 ft 148 kts 66°
2026-05-08 01:36 35.00414 -91.46532 7061 ft 148 kts 66°
2026-05-08 01:37 35.00747 -91.45339 7063 ft 148 kts 66°
2026-05-08 01:37 35.01076 -91.44165 7068 ft 148 kts 66°
2026-05-08 01:37 35.01410 -91.42970 7065 ft 148 kts 66°
2026-05-08 01:37 35.01742 -91.41781 7067 ft 148 kts 66°
2026-05-08 01:38 35.02075 -91.40587 7065 ft 148 kts 66°
2026-05-08 01:38 35.02408 -91.39395 7066 ft 148 kts 66°
2026-05-08 01:38 35.02628 -91.38604 7066 ft 148 kts 66°
2026-05-08 01:38 35.03069 -91.37025 7067 ft 148 kts 66°
2026-05-08 01:39 35.03400 -91.35836 7068 ft 148 kts 66°
2026-05-08 01:39 35.03733 -91.34642 7068 ft 148 kts 66°
2026-05-08 01:39 35.03958 -91.33834 7067 ft 148 kts 66°
2026-05-08 01:39 35.04285 -91.32660 7068 ft 148 kts 66°
2026-05-08 01:40 35.04617 -91.31466 7065 ft 148 kts 66°
2026-05-08 01:40 35.04949 -91.30273 7066 ft 148 kts 66°
2026-05-08 01:40 35.05280 -91.29081 7066 ft 148 kts 66°
2026-05-08 01:40 35.05611 -91.27888 7064 ft 148 kts 66°
2026-05-08 01:41 35.05942 -91.26698 7069 ft 148 kts 66°
2026-05-08 01:41 35.06273 -91.25505 7070 ft 148 kts 66°
2026-05-08 01:41 35.06604 -91.24312 7069 ft 148 kts 66°
2026-05-08 01:41 35.06935 -91.23123 7068 ft 148 kts 66°
2026-05-08 01:42 35.07266 -91.21930 7069 ft 148 kts 66°
2026-05-08 01:42 35.07598 -91.20734 7068 ft 148 kts 66°
2026-05-08 01:42 35.07928 -91.19541 7069 ft 148 kts 66°
2026-05-08 01:42 35.08258 -91.18345 7073 ft 149 kts 66°
2026-05-08 01:43 35.08589 -91.17150 7067 ft 148 kts 66°
2026-05-08 01:43 35.08915 -91.15971 7065 ft 148 kts 66°
2026-05-08 01:43 35.09249 -91.14764 7064 ft 148 kts 66°
2026-05-08 01:43 35.09576 -91.13583 7068 ft 148 kts 66°
2026-05-08 01:44 35.09905 -91.12390 7066 ft 148 kts 66°
2026-05-08 01:44 35.10236 -91.11195 7066 ft 148 kts 66°
2026-05-08 01:44 35.10441 -91.09954 7066 ft 151 kts 84°
2026-05-08 01:44 35.10421 -91.08666 7064 ft 152 kts 89°
2026-05-08 01:45 35.10357 -91.07382 7068 ft 152 kts 91°
2026-05-08 01:45 35.10280 -91.06093 7067 ft 152 kts 91°
2026-05-08 01:45 35.10203 -91.04803 7067 ft 152 kts 91°
2026-05-08 01:45 35.10128 -91.03511 7066 ft 153 kts 91°
2026-05-08 01:46 35.10055 -91.02218 7068 ft 153 kts 91°
2026-05-08 01:46 35.09984 -91.00921 7042 ft 155 kts 90°
2026-05-08 01:46 35.09914 -90.99577 6902 ft 162 kts 91°
2026-05-08 01:46 35.09842 -90.98199 6740 ft 166 kts 91°
2026-05-08 01:47 35.09768 -90.96780 6576 ft 168 kts 91°
2026-05-08 01:47 35.09692 -90.95357 6409 ft 168 kts 91°
2026-05-08 01:47 35.09617 -90.93931 6241 ft 168 kts 91°
2026-05-08 01:48 35.09465 -90.91081 5891 ft 168 kts 91°
2026-05-08 01:48 35.09390 -90.89664 5726 ft 167 kts 91°
2026-05-08 01:48 35.09314 -90.88249 5559 ft 167 kts 91°
2026-05-08 01:48 35.09240 -90.86853 5390 ft 166 kts 92°
2026-05-08 01:49 35.09165 -90.85445 5215 ft 166 kts 92°
2026-05-08 01:49 35.09091 -90.84041 5051 ft 165 kts 92°
2026-05-08 01:49 35.09016 -90.82652 4950 ft 161 kts 92°
2026-05-08 01:49 35.08944 -90.81319 4955 ft 154 kts 92°
2026-05-08 01:50 35.08875 -90.80025 4956 ft 151 kts 92°
2026-05-08 01:50 35.08807 -90.78755 4956 ft 149 kts 92°
2026-05-08 01:50 35.08740 -90.77495 4955 ft 148 kts 92°
2026-05-08 01:50 35.08673 -90.76241 4958 ft 148 kts 91°
2026-05-08 01:51 35.08606 -90.74986 4952 ft 148 kts 91°
2026-05-08 01:51 35.08538 -90.73729 4950 ft 148 kts 91°
2026-05-08 01:51 35.08471 -90.72470 4955 ft 149 kts 91°
2026-05-08 01:51 35.08403 -90.71213 4954 ft 149 kts 91°
2026-05-08 01:52 35.08335 -90.69954 4953 ft 149 kts 91°
2026-05-08 01:52 35.08266 -90.68695 4954 ft 149 kts 91°
2026-05-08 01:52 35.08198 -90.67437 4961 ft 149 kts 91°
2026-05-08 01:52 35.08129 -90.66174 4966 ft 149 kts 91°
2026-05-08 01:53 35.08060 -90.64908 4975 ft 149 kts 91°
2026-05-08 01:53 35.07991 -90.63644 4974 ft 149 kts 91°
2026-05-08 01:53 35.07921 -90.62380 4972 ft 149 kts 91°
2026-05-08 01:53 35.07852 -90.61116 4969 ft 149 kts 91°
2026-05-08 01:54 35.07783 -90.59869 4968 ft 149 kts 91°
2026-05-08 01:54 35.07720 -90.58603 4974 ft 149 kts 91°
2026-05-08 01:54 35.07656 -90.57337 4977 ft 150 kts 91°
2026-05-08 01:54 35.07588 -90.56064 4976 ft 150 kts 92°
2026-05-08 01:55 35.07364 -90.54845 4970 ft 148 kts 117°
2026-05-08 01:55 35.06876 -90.53739 4969 ft 149 kts 117°
2026-05-08 01:55 35.06368 -90.52633 4967 ft 150 kts 118°
2026-05-08 01:55 35.05851 -90.51527 4966 ft 150 kts 118°
2026-05-08 01:56 35.05335 -90.50436 4962 ft 150 kts 118°
2026-05-08 01:56 35.04811 -90.49331 4964 ft 150 kts 118°
2026-05-08 01:56 35.04286 -90.48227 4966 ft 150 kts 118°
2026-05-08 01:56 35.03763 -90.47127 4968 ft 150 kts 118°
2026-05-08 01:57 35.03236 -90.46022 4967 ft 150 kts 118°
2026-05-08 01:57 35.02710 -90.44918 4965 ft 150 kts 118°
2026-05-08 01:57 35.02291 -90.44042 4964 ft 150 kts 118°
2026-05-08 01:57 35.01763 -90.42939 4963 ft 150 kts 118°
2026-05-08 01:58 35.01235 -90.41839 4962 ft 150 kts 118°
2026-05-08 01:58 35.00709 -90.40740 4961 ft 150 kts 118°
2026-05-08 01:58 35.00191 -90.39657 4960 ft 150 kts 118°
2026-05-08 01:58 34.99660 -90.38548 4960 ft 149 kts 118°
2026-05-08 01:59 34.99144 -90.37468 4956 ft 149 kts 118°
2026-05-08 01:59 34.98621 -90.36392 4953 ft 147 kts 118°
2026-05-08 01:59 34.98099 -90.35328 4949 ft 145 kts 118°
2026-05-08 01:59 34.97581 -90.34277 4949 ft 144 kts 118°
2026-05-08 02:00 34.97065 -90.33230 4947 ft 144 kts 118°
2026-05-08 02:00 34.96550 -90.32186 4946 ft 144 kts 118°
2026-05-08 02:00 34.96034 -90.31141 4948 ft 144 kts 118°
2026-05-08 02:00 34.95518 -90.30097 4941 ft 144 kts 118°
2026-05-08 02:01 34.94991 -90.29026 4814 ft 151 kts 118°
2026-05-08 02:01 34.94440 -90.27899 4619 ft 157 kts 118°
2026-05-08 02:01 34.93879 -90.26743 4425 ft 159 kts 118°
2026-05-08 02:01 34.93314 -90.25574 4235 ft 160 kts 118°
2026-05-08 02:02 34.92749 -90.24400 4040 ft 160 kts 118°
2026-05-08 02:02 34.92195 -90.23243 3851 ft 160 kts 118°
2026-05-08 02:02 34.91634 -90.22069 3661 ft 160 kts 118°
2026-05-08 02:02 34.91078 -90.20900 3477 ft 159 kts 118°
2026-05-08 02:03 34.90524 -90.19732 3293 ft 159 kts 118°
2026-05-08 02:03 34.89971 -90.18565 3105 ft 159 kts 118°
2026-05-08 02:03 34.89419 -90.17400 2920 ft 159 kts 118°
2026-05-08 02:03 34.88879 -90.16263 2920 ft 149 kts 118°
2026-05-08 02:04 34.88369 -90.15194 2958 ft 144 kts 118°
2026-05-08 02:04 34.87868 -90.14148 2983 ft 141 kts 118°
2026-05-08 02:04 34.87376 -90.13120 3007 ft 140 kts 118°
2026-05-08 02:04 34.86903 -90.12089 3031 ft 138 kts 109°
2026-05-08 02:05 34.86871 -90.10950 3023 ft 136 kts 85°
2026-05-08 02:05 34.86901 -90.09753 2865 ft 148 kts 87°
2026-05-08 02:05 34.86911 -90.08484 2656 ft 155 kts 88°
2026-05-08 02:05 34.86913 -90.07157 2439 ft 158 kts 88°
2026-05-08 02:06 34.86911 -90.05809 2220 ft 160 kts 88°
2026-05-08 02:06 34.86907 -90.04452 2001 ft 161 kts 88°
2026-05-08 02:06 34.86900 -90.03122 1951 ft 152 kts 88°
2026-05-08 02:06 34.86891 -90.01858 1949 ft 147 kts 88°
2026-05-08 02:07 34.86900 -90.00649 1949 ft 136 kts 78°
2026-05-08 02:07 34.87433 -89.99801 1967 ft 126 kts 27°
2026-05-08 02:07 34.88216 -89.99343 1967 ft 124 kts 21°
2026-05-08 02:07 34.89003 -89.98936 2018 ft 121 kts 24°
2026-05-08 02:08 34.89770 -89.98516 2018 ft 122 kts 19°
2026-05-08 02:08 34.90609 -89.98358 1996 ft 123 kts 356°
2026-05-08 02:08 34.91458 -89.98480 2001 ft 122 kts 354°
2026-05-08 02:08 34.92302 -89.98556 2019 ft 122 kts 359°
2026-05-08 02:09 34.93147 -89.98528 2047 ft 121 kts
2026-05-08 02:09 34.93981 -89.98437 1999 ft 119 kts
2026-05-08 02:09 34.94811 -89.98403 1831 ft 119 kts 359°
2026-05-08 02:09 34.95633 -89.98457 1681 ft 118 kts 357°
2026-05-08 02:10 34.96437 -89.98526 1533 ft 109 kts 357°
2026-05-08 02:10 34.97110 -89.98578 1415 ft 89 kts 357°
2026-05-08 02:10 34.97703 -89.98611 1249 ft 82 kts 359°
2026-05-08 02:10 34.98260 -89.98632 1130 ft 78 kts 359°
2026-05-08 02:11 34.98783 -89.98645 1025 ft 73 kts 359°
2026-05-08 02:11 34.99288 -89.98648 951 ft 72 kts 359°
2026-05-08 02:11 34.99785 -89.98659 885 ft 72 kts 359°
2026-05-08 02:11 35.00293 -89.98673 784 ft 73 kts 359°
2026-05-08 02:12 35.00798 -89.98676 667 ft 72 kts
2026-05-08 02:12 35.01297 -89.98678 571 ft 72 kts 359°
2026-05-08 02:12 35.01799 -89.98687 464 ft 73 kts 359°
2026-05-08 02:12 35.02310 -89.98693 352 ft 73 kts 359°
2026-05-08 02:13 35.02764 -89.98701 309 ft 54 kts 359°
2026-05-08 02:13 35.03075 -89.98707 309 ft 38 kts 358°
2026-05-08 02:13 35.03278 -89.98708 313 ft 27 kts
2026-05-08 02:13 35.03491 -89.98715 309 ft 38 kts 359°
2026-05-08 02:14 35.03677 -89.98610 307 ft 11 kts 54°
2026-05-08 02:14 35.03690 -89.98597 307 ft 0 kts 33°
2026-05-08 02:15 35.03738 -89.98588 305 ft 14 kts 358°